Regional Weather Roundup
Issued by NWS

Home | Current Version | Previous Version | Graphics & Text | Print | Product List | Glossary On
Versions: 1 2 3 4 5 6 7 8 9 10 11 12 13 14 15 16 17 18 19 20 21 22 23 24 25 26 27 28 29 30 31 32 33 34 35 36 37 38 39 40 41 42 43 44 45 46 47 48 49 50
000
ASUS43 KFSD 261810
RWRSD

WEATHER ROUNDUP FOR SOUTH DAKOTA
NATIONAL WEATHER SERVICE SIOUX FALLS SD
1200 PM CST WED NOV 26 2014

NOTE: "FAIR" INDICATES FEW OR NO CLOUDS BELOW 12,000 FEET WITH NO
SIGNIFICANT WEATHER AND/OR OBSTRUCTIONS TO VISIBILITY.


SDZ001>005-009-010-012>017-261900-
NORTHWEST AND NORTH CENTRAL SOUTH DAKOTA

CITY           SKY/WX    TMP DP  RH WIND       PRES   REMARKS
BUFFALO          N/A     29  22  75 NW9       30.16S WCI  20
FAITH            N/A     23  19  85 SW9       30.26S WCI  13
MOBRIDGE       LGT SNOW  14   7  73 N5        30.34S WCI   6
$$

SDZ012>016-024>037-041>051-057-063-072>074-261900-
SOUTHWEST AND SOUTH CENTRAL SOUTH DAKOTA

CITY           SKY/WX    TMP DP  RH WIND       PRES   REMARKS
RAPID CTY ARPT CLOUDY    27  22  81 S8        30.24S WCI  19
PIERRE         CLOUDY    21  13  71 NE6       30.33S WCI  13
CUSTER         CLOUDY    26  16  65 SW3       30.12S
PHILIP         FLURRIES  27  19  74 CALM      30.30F
PINE RIDGE     CLOUDY    27  21  78 SW5       30.25F WCI  22
SPEARFISH      MIX PCPN  28  23  80 NW10      30.20F WCI  19
WINNER         CLOUDY    23  13  65 N10       30.32S WCI  12
$$

SDZ004>011-016>023-039-040-261900-
NORTHEAST SOUTH DAKOTA

CITY           SKY/WX    TMP DP  RH WIND       PRES   REMARKS
ABERDEEN       PTSUNNY    8  -2  63 N16       30.37S WCI -10
WATERTOWN      FAIR      10   4  76 N16       30.25R WCI  -7
SISSETON         N/A      8   3  80 N22       30.33R WCI -12
$$

SDZ017-020-022-023-036>040-048>070-261900-
SOUTHEAST SOUTH DAKOTA

CITY           SKY/WX    TMP DP  RH WIND       PRES   REMARKS
SIOUX FALLS    FAIR      21  14  74 N18       30.21R WCI   6
HURON          SUNNY     11   2  67 N22       30.33S WCI  -8
CHAMBERLAIN    CLOUDY    19   9  64 NW10      30.34R WCI   8
MITCHELL       MOSUNNY   16   9  74 N14       30.32S WCI   2
YANKTON        CLOUDY   N/A N/A N/A NW21G26   30.25S
$$

ABBREVIATIONS USED IN REMARKS
   TC - TEMPERATURE IN CELSIUS
  WCI - WIND CHILL INDEX
   HX - HEAT INDEX
  VSB - VISIBILITY




USA.gov is the U.S. government's official web portal to all federal, state and local government web resources and services.